Weather History for KBTV - April, 2002

Change the Weather History Date:

Wednesday, April 17, 2002

  Actual Average Record
Temperature  
Mean Temperature 74 °F 46 °F  
Max Temperature 90 °F 56 °F 90 °F (2002)
Min Temperature 59 °F 36 °F 13 °F (1971)
Degree Days  
Heating Degree Days 0 19  
Month to date heating degree days 395  
Since 1 July heating degree days 6859  
Cooling Degree Days 9 0  
Month to date cooling degree days 0  
Year to date cooling degree days 0  
Growing Degree Days 24 (Base 50)    
Moisture  
Dew Point 58 °F    
Average Humidity 57    
Maximum Humidity 86    
Minimum Humidity 38    
Precipitation  
Precipitation 0.00 in 0.10 in 1.07 in (1982)
Month to date precipitation 1.56  
Year to date precipitation 7.60  
Snow  
Snow 0.00 in 0.20 in 11.30 in (1983)
Month to date snowfall 3.4  
Since 1 July snowfall 80.0  
Snow Depth -    
Sea Level Pressure  
Sea Level Pressure 29.92 in    
Wind  
Wind Speed 6 mph (WSW)    
Max Wind Speed 14 mph    
Max Gust Speed 17 mph    
Visibility 10 miles    
Events Rain    
T = Trace of Precipitation, MM = Missing Value Source: NWS Daily Summary

Daily Weather History Graph

Daily Weather History Graph

Search for Another Location

Airport or City:

Trip Planner

Search our weather history database for the weather conditions in past years. The results will help you decide how hot, cold, wet, or windy it might be!

Date:

Astronomy

Apr. 17, 2002 Rise Set
Actual Time 6:05 AM EDT 7:39 PM EDT
Civil Twilight 5:35 AM EDT 8:10 PM EDT
Nautical Twilight 4:58 AM EDT 8:47 PM EDT
Astronomical Twilight 4:18 AM EDT 9:27 PM EDT
Moon 8:51 AM EDT (4/17) No Moon Set
Length of Visible Light 14h 35m
Length of Day
13h 34m
Waxing Crescent, 21% of the Moon is Illuminated
Apr 17
Waxing Crescent
Apr 20
First Quarter
Apr 26
Full
May 4
Last Quarter
May 12
New

Hourly Weather History & Observations

Time (EDT) Temp. Heat Index Dew Point Humidity Pressure Visibility Wind Dir Wind Speed Gust Speed Precip Events Conditions
12:54 AM 69.1 °F - 55.0 °F 61% 29.96 in 10.0 mi Variable 3.5 mph - N/A   Clear
1:54 AM 70.0 °F - 55.0 °F 59% 29.96 in 10.0 mi ESE 3.5 mph - N/A   Clear
2:54 AM 64.0 °F - 55.0 °F 73% 29.97 in 10.0 mi Variable 3.5 mph - N/A   Clear
3:54 AM 63.0 °F - 55.0 °F 75% 29.95 in 10.0 mi East 4.6 mph - N/A   Clear
4:54 AM 62.1 °F - 55.0 °F 78% 29.96 in 10.0 mi South 4.6 mph - N/A   Clear
5:54 AM 59.0 °F - 54.0 °F 83% 29.97 in 10.0 mi Calm Calm - N/A   Partly Cloudy
6:54 AM 60.1 °F - 55.9 °F 86% 29.97 in 8.0 mi East 4.6 mph - N/A   Clear
7:54 AM 66.0 °F - 57.0 °F 73% 29.96 in 10.0 mi Variable 3.5 mph - N/A   Clear
8:54 AM 75.9 °F - 57.9 °F 54% 29.95 in 10.0 mi South 13.8 mph - N/A   Partly Cloudy
9:54 AM 79.0 °F - 60.1 °F 52% 29.95 in 10.0 mi South 11.5 mph - N/A   Partly Cloudy
10:54 AM 82.0 °F 82.4 °F 60.1 °F 47% 29.94 in 10.0 mi WSW 8.1 mph - N/A   Partly Cloudy
11:54 AM 84.0 °F 84.4 °F 61.0 °F 46% 29.91 in 10.0 mi West 9.2 mph - N/A   Partly Cloudy
12:54 PM 87.1 °F 87.0 °F 61.0 °F 41% 29.89 in 10.0 mi WSW 10.4 mph 17.3 mph N/A   Scattered Clouds
1:54 PM 89.1 °F 88.8 °F 60.1 °F 38% 29.87 in 10.0 mi WSW 8.1 mph - N/A   Scattered Clouds
2:54 PM 87.1 °F 86.7 °F 60.1 °F 40% 29.86 in 10.0 mi NW 9.2 mph - N/A   Scattered Clouds
3:54 PM 89.1 °F 89.3 °F 62.1 °F 40% 29.85 in 10.0 mi WNW 10.4 mph - N/A   Scattered Clouds
4:54 PM 89.1 °F 88.8 °F 60.1 °F 38% 29.84 in 10.0 mi WNW 11.5 mph - N/A   Scattered Clouds
5:54 PM 86.0 °F 85.7 °F 60.1 °F 41% 29.85 in 10.0 mi Variable 6.9 mph - N/A   Partly Cloudy
6:54 PM 82.9 °F 82.8 °F 59.0 °F 44% 29.86 in 10.0 mi West 6.9 mph - N/A   Scattered Clouds
7:54 PM 73.9 °F - 64.9 °F 73% 29.88 in 9.0 mi SE 3.5 mph - N/A   Scattered Clouds
8:54 PM 73.0 °F - 59.0 °F 61% 29.91 in 10.0 mi Variable 4.6 mph - N/A   Clear
9:54 PM 75.9 °F - 57.0 °F 52% 29.91 in 10.0 mi West 6.9 mph - N/A   Clear
10:54 PM 73.0 °F - 57.9 °F 59% 29.91 in 10.0 mi Calm Calm - N/A   Clear
11:54 PM 75.0 °F - 59.0 °F 57% 29.93 in 10.0 mi West 8.1 mph - 0.00 in Rain Light Rain